DW1083 Weather Reports


time (UTC)temp
C
wind
direction
speed
KPH
gust
KPH
rain 1hr
cm
rain 24hr
cm
rain mn
cm
humidity
%
barometer
mb
20260506220312 7 292 3.2 3.2 0.00 0.23 0.23 95 1010.3
20260506203311 8 315 1.6 4.8 0.03 0.23 0.23 95 1009.7
20260506200311 8 292 3.2 6.4 0.03 0.23 0.23 95 1009.8
20260506193311 9 0 0.0 0.0 0.05 0.20 0.20 96 1009.9
20260506190311 9 0 0.0 0.0 0.05 0.20 0.20 95 1009.2
20260506183311 10 0 0.0 0.0 0.05 0.15 0.15 95 1008.4
20260506180311 10 0 0.0 0.0 0.03 0.15 0.15 95 1008.6
20260506173311 10 0 0.0 0.0 0.00 0.13 0.13 94 1007.8
20260506170310 10 0 0.0 0.0 0.03 0.13 0.13 94 1007.6
20260506160310 10 0 0.0 0.0 0.03 0.10 0.10 94 1007.9
20260506153310 10 0 0.0 0.0 0.05 0.10 0.10 93 1008.0
20260506150311 11 0 0.0 0.0 0.03 0.08 0.08 92 1008.4
20260506140310 11 0 0.0 0.0 0.03 0.05 0.05 88 1008.6
20260506133310 12 0 0.0 0.0 0.00 0.05 0.05 85 1009.2
20260506130310 12 0 0.0 0.0 0.03 0.05 0.05 85 1009.2
20260506123310 12 0 0.0 0.0 0.03 0.05 0.05 84 1009.8
20260506120309 13 270 0.0 3.2 0.00 0.03 0.03 78 1009.8
20260506113309 13 0 0.0 0.0 0.00 0.03 0.03 77 1010.1
20260506110310 13 202 0.0 6.4 0.00 0.03 0.03 77 1010.0
20260506103309 13 157 4.8 9.7 0.00 0.03 0.03 74 1010.2
20260506100309 12 202 1.6 6.4 0.00 0.03 0.03 73 1010.5
20260506093309 12 90 0.0 3.2 0.00 0.03 0.03 78 1010.6
20260506090310 11 0 0.0 0.0 0.03 0.03 0.03 78 1010.6
20260506083309 11 180 0.0 3.2 0.03 0.03 0.03 79 1010.6
20260506080309 11 0 0.0 0.0 0.00 0.00 0.00 76 1010.2
20260506073309 11 135 1.6 4.8 0.00 0.00 0.00 74 1010.4
20260506070308 11 157 1.6 4.8 0.00 0.00 0.00 75 1010.0
20260506050313 8 0 0.0 0.0 0.00 0.00 0.00 79 1009.9
20260506043313 8 0 0.0 0.0 0.00 0.00 0.00 78 1009.8
20260506040313 8 0 0.0 0.0 0.00 0.00 0.00 76 1010.2
20260506033313 8 90 1.6 8.0 0.00 0.00 0.00 77 1009.9
20260506030312 8 112 0.0 8.0 0.00 0.00 0.00 79 1010.2
20260506023312 8 112 1.6 6.4 0.00 0.00 0.00 80 1010.5
20260506020312 8 202 1.6 6.4 0.00 0.00 0.00 81 1010.6
20260506010312 9 180 0.0 4.8 0.00 0.00 0.00 80 1010.6
20260506003312 10 157 3.2 9.7 0.00 0.00 0.00 80 1010.7
20260506000312 10 180 1.6 14.5 0.00 0.00 0.00 82 1010.9
20260505233312 10 90 0.0 4.8 0.00 0.00 0.00 81 1011.0
20260505230312 9 180 1.6 4.8 0.00 0.00 0.00 83 1011.0
20260505223311 9 202 1.6 6.4 0.00 0.00 0.00 85 1011.2